THOR ABLESTAR DEB, 408

Orbit data source: Space-Track

THOR ABLESTAR DEB, 408 is space debris in LEO originally from a launch on Thu, 29 Jun 1961 UTC launched from the Air Force Eastern Test Range (AFETR). Debris objects in space refer to the collection of defunct objects orbiting the Earth. Examples of debris include non-operational satellites, rocket bodies, and fragments generated from explosions, collisions, or faulty payload assembly.

Loading next visibility...
Identifier
408, 1961-015EH
Orbit
LEO
Country
Flag of USUS
Related business
Manufacturer
Unknown
Mission
Spacecraft
Bus & Motor
Unknown
Mass
Unknown
Launch date (UTC)
1961-06-29 (64 years ago)
Launch vehicle
Unknown
Launch site
Air Force Eastern Test Range (AFETR)
Object type
Payload
Rocket body
Debris
Shape & HBR
Unknown shape, 0.1 m
Radar Cross Section
Medium (>0.1 m² and <1 m²)

Expand to show TLE details & history
Last TLE update: 14 hours ago

TLE from 14 hours ago
0 THOR ABLESTAR DEB
1 00408U 61015EH  25286.59061204  .00000507  00000-0  57782-3 0  9999
2 00408  66.7874 337.8666 0071361 286.1007 225.9502 13.76918063271743
Epoch: 2025-10-13T14:10Z
TLE epoch observation values (Epoch: 2025-10-13T14:10:28.880Z)
Latitude
26.08758°
Longitude
-89.20261°
Altitude
1,013.842 km
Speed
7.329 km/s
True Right ascension
09h 43m 14s
True Declination
25° 57' 24"
Sunlit
Object was in daylight at epoch
Visualization orbit readout
Latitude
Unknown
Longitude
Unknown
Altitude
Unknown
Speed
Unknown
Apparent Right ascension
Unknown
Apparent Declination
Unknown
Sunlit
N/A
Visualization observer readout
Local Sidereal Time
22:15:37
Azimuth
Unknown
Elevation
Unknown
Doppler factor
Unknown
Orbital elements
Apogee altitude
1,025.704 km
Perigee altitude
920.784 km
Semi-major axis
7,351.381 km
Eccentricity
0.00714
Inclination
66.7874°
RAAN
337.8666°
Arg. of periapsis
286.1007°
True anomaly
225.3661°
Mean anomaly
225.9502°
Eccentric anomaly
225.65779°
Mean motion
3.44342 °/min
Orbital period
104.55 mins
BSTAR
0.00057782

Documentation

Showing up to 5 results
|